Nellis AFB, NV

8:10 PM PST on December 06, 2019 (GMT -0800)
Nellis Air Force Base

Weather History for KLSV - October, 2019

Change the Weather History Date:

Sunday, October 27, 2019

  Actual Average Record
Temperature  
Mean Temperature 62 °F -  
Max Temperature 72 °F 71 °F 88 °F (2008)
Min Temperature 51 °F 48 °F 37 °F (1997)
Degree Days  
Heating Degree Days 2    
Growing Degree Days 12 (Base 50)    
Moisture  
Dew Point 17 °F    
Average Humidity 17    
Maximum Humidity 26    
Minimum Humidity 13    
Precipitation  
Precipitation 0.00 in - - ()
Sea Level Pressure  
Sea Level Pressure 29.74 in    
Wind  
Wind Speed 12 mph (North)    
Max Wind Speed 26 mph    
Max Gust Speed 37 mph    
Visibility 10 miles    
Events      
Averages and records for this station are not official NWS values.
T = Trace of Precipitation, MM = Missing Value Source: NWS Daily Summary

Daily Weather History Graph

Daily Weather History Graph

Search for Another Location

Airport or City:

Astronomy

Oct. 27, 2019 Rise Set
Actual Time 6:58 AM PDT 5:49 PM PDT
Civil Twilight 6:31 AM PDT 6:15 PM PDT
Nautical Twilight 6:01 AM PDT 6:45 PM PDT
Astronomical Twilight 5:31 AM PDT 7:15 PM PDT
Moon 6:14 AM PDT (10/27) 5:59 PM PDT (10/27)
Length of Visible Light 11h 44m
Length of Day
10h 51m
Waning Crescent, 0% of the Moon is Illuminated
Oct 27
Waning Crescent
Oct 27
New
Nov 4
First Quarter
Nov 12
Full
Nov 19
Last Quarter

Hourly Weather History & Observations

Time (PDT) Temp. Dew Point Humidity Pressure Visibility Wind Dir Wind Speed Gust Speed Precip Events Conditions
12:55 AM 66.2 °F 17.6 °F 15% 29.54 in 10.0 mi Variable 1.2 mph - N/A   Clear
1:55 AM 72.0 °F 21.7 °F 15% 29.49 in 10.0 mi Variable 2.3 mph - N/A   Clear
2:55 AM 71.1 °F 18.1 °F 13% 29.48 in 10.0 mi South 10.4 mph - N/A   Clear
3:58 AM 71.8 °F 23.2 °F 16% 29.48 in 10.0 mi SSE 17.3 mph - N/A   Clear
4:55 AM 64.4 °F 21.2 °F 19% 29.51 in 10.0 mi NNE 6.9 mph 12.7 mph N/A   Clear
5:55 AM 60.3 °F 25.2 °F 26% 29.57 in 10.0 mi NE 6.9 mph - N/A   Clear
6:55 AM 59.7 °F 20.8 °F 22% 29.63 in 10.0 mi Variable 5.8 mph - N/A   Clear
7:58 AM 58.6 °F 18.9 °F 21% 29.70 in 10.0 mi NNE 8.1 mph - N/A   Clear
8:58 AM 60.8 °F 18.3 °F 19% 29.75 in 10.0 mi North 12.7 mph - N/A   Clear
9:58 AM 62.4 °F 17.1 °F 17% 29.78 in 10.0 mi NNE 13.8 mph 18.4 mph N/A   Clear
10:58 AM 63.5 °F 18.0 °F 17% 29.82 in 10.0 mi North 9.2 mph - N/A   Clear
11:58 AM 66.0 °F 17.1 °F 15% 29.81 in 10.0 mi North 23.0 mph 29.9 mph N/A   Clear
12:38 PM 66.2 °F 15.8 °F 14% 29.76 in 10.0 mi NNE 17.3 mph 28.8 mph N/A   Clear
12:58 PM 67.5 °F 14.9 °F 13% 29.75 in 10.0 mi North 20.7 mph - N/A   Clear
1:58 PM 67.8 °F 15.1 °F 13% 29.73 in 10.0 mi North 21.9 mph 29.9 mph N/A   Clear
2:58 PM 66.6 °F 15.8 °F 14% 29.74 in 10.0 mi North 23.0 mph 29.9 mph N/A   Clear
3:58 PM 64.9 °F 16.2 °F 15% 29.76 in 10.0 mi North 20.7 mph 32.2 mph N/A   Clear
4:58 PM 63.3 °F 14.9 °F 15% 29.78 in 10.0 mi North 24.2 mph 36.8 mph N/A   Clear
5:58 PM 61.0 °F 15.8 °F 17% 29.80 in 10.0 mi North 25.3 mph - N/A   Clear
6:58 PM 59.5 °F 17.2 °F 19% 29.84 in 10.0 mi North 21.9 mph 29.9 mph N/A   Clear
7:58 PM 58.8 °F 15.4 °F 18% 29.87 in 10.0 mi North 26.5 mph 34.5 mph N/A   Scattered Clouds
8:58 PM 57.0 °F 15.1 °F 19% 29.90 in 10.0 mi North 21.9 mph 34.5 mph N/A   Partly Cloudy
9:58 PM 55.2 °F 11.1 °F 17% 29.95 in 10.0 mi NNW 23.0 mph 27.6 mph N/A   Clear
10:58 PM 53.6 °F 5.0 °F 14% 29.98 in 10.0 mi North 19.6 mph 33.4 mph N/A   Clear
11:58 PM 51.8 °F 5.5 °F 15% 30.01 in 10.0 mi NNE 25.3 mph 32.2 mph N/A   Clear